Torna al catalogo

ICEYE-X40

AttivoScienzaSSO
NORAD 60549·PAYLOAD·🇦🇪 UAE

Lanciato Aug 16, 2024 da Vandenberg Space Force Base

Loading…

Prossimi Passaggi (prossime 24 ore)

TLE

AggiornatoSource: Space-Track

Epoca: Sep 13, 2026, 22:23 UTC

1 60549U 24149CK  26256.93304513  .00002509  00000-0  21521-3 0  9993
2 60549  97.6732 331.9988 0005201 133.6566 226.5089 14.98387188113362

Traccia ICEYE-X40 in tempo reale con AllMySat

Download on the App Store